User: anonymous   Login
Location: Bittelbronn
(48.4454°N, 8.5870°E)
Time: 19:18:57
(UTC+00:00)
Language:

SL-16 R/B - Orbit

View from above orbital plane
View from above orbital plane
View from above satellite
View from above satellite

Ground track
Ground track

The orbit data is extracted from the following two-line orbital elements,

1 31793U 07029B   24199.56736743  .00000141  00000-0  98183-4 0  9996
2 31793  70.9762 353.7323 0002143 255.2134 171.7370 14.14637495880493
Epoch (UTC): 17 July 2024 13:37:00
Eccentricity: 0.0002143
inclination: 70.9762°
perigee height: 842 km
apogee height: 845 km
right ascension of ascending node: 353.7323°
argument of perigee: 255.2134°
revolutions per day: 14.14637495
mean anomaly at epoch: 171.7370°
orbit number at epoch: 88049

The dashed part of the orbit path shows where the satellite is in the earth's shadow,  

DLR